This is the latest recevied weather packets stored in our database for station/object NC4M. If no packets are shown the sender has not sent any weather packets the latest 10 day(s).
| Time | Temp. | Humidity | Pressure | Rain* | Wind** | Luminosity | Snow |
|---|---|---|---|---|---|---|---|
| 1777641431 | 8.89° C | 67% | 1019.1 hPa | 0 mm | - | 38 W/m² | - |
| 1777641127 | 8.89° C | 73% | 1019.2 hPa | 0 mm | - | 36 W/m² | - |
| 1777640823 | 8.33° C | 72% | 1019.3 hPa | 0 mm | - | 35 W/m² | - |
| 1777640520 | 8.33° C | 76% | 1019.1 hPa | 0 mm | - | 34 W/m² | - |
| 1777640217 | 7.78° C | 74% | 1019 hPa | 0 mm | - | 34 W/m² | - |
| 1777639913 | 7.78° C | 80% | 1019 hPa | 0 mm | - | 32 W/m² | - |
| 1777639611 | 7.22° C | 80% | 1019 hPa | 0 mm | - | 31 W/m² | - |
| 1777639308 | 7.22° C | 84% | 1018.9 hPa | 0 mm | - | 29 W/m² | - |
| 1777639003 | 6.67° C | 87% | 1019 hPa | 0 mm | - | 28 W/m² | - |
| 1777638699 | 6.67° C | 92% | 1019.1 hPa | 0 mm | - | 27 W/m² | - |
| 1777638396 | 6.67° C | 95% | 1019 hPa | 0 mm | - | 25 W/m² | - |
| 1777638093 | 6.67° C | 96% | 1019.1 hPa | 0 mm | - | 24 W/m² | - |
| 1777637789 | 6.11° C | 96% | 1018.8 hPa | 0 mm | - | 23 W/m² | - |
| 1777637485 | 6.11° C | 96% | 1018.8 hPa | 0 mm | - | 22 W/m² | - |
| 1777637183 | 6.11° C | 96% | 1018.9 hPa | 0 mm | - | 21 W/m² | - |
| 1777636880 | 6.11° C | 96% | 1018.8 hPa | 0 mm | - | 19 W/m² | - |
| 1777636575 | 6.11° C | 96% | 1018.9 hPa | 0 mm | - | 18 W/m² | - |
| 1777636272 | 6.11° C | 96% | 1018.7 hPa | 0 mm | - | 16 W/m² | - |
| 1777635972 | 6.11° C | 96% | 1018.9 hPa | 0 mm | - | 15 W/m² | - |
| 1777635668 | 6.11° C | 96% | 1018.9 hPa | 0 mm | - | 13 W/m² | - |
| 1777635365 | 6.11° C | 96% | 1018.8 hPa | 0 mm | - | 11 W/m² | - |
| 1777635062 | 6.11° C | 96% | 1018.7 hPa | 0 mm | - | 9 W/m² | - |
| 1777634757 | 6.11° C | 96% | 1018.9 hPa | 0 mm | - | 7 W/m² | - |
| 1777634455 | 6.11° C | 96% | 1018.7 hPa | 0 mm | - | 5 W/m² | - |
| 1777634152 | 6.11° C | 96% | 1018.5 hPa | 0 mm | - | 3 W/m² | - |
* Rain latest hour (hover to see other rain measurements)
** Current wind speed in m/s (hover to see current wind gust speed)